SAS796 LFMN-EKCH

Flight info

Callsign SAS796
Flight time 1h 55m
Altitude 34000
Route BASIP DCT EGHIN DCT ANAKI DCT KEMMI DCT SRN DCT ABESI DCT LOKTA/N0433F350 DCT TEDGO DCT HAREM DCT LOHRE DCT BERXO DCT MAKEL N851 GESKA Z711 MONAK
Aircraft A319/M-SDE3FGHIRWY/LB1

Departure

Time 2026-05-03 20:23
Airport Nice-Côte d'Azur Airport (LFMN)

Arrival

Time 2026-05-03 22:18
Airport Copenhagen Kastrup Airport (EKCH)
Time Latitude Longitude Altitude Speed Heading
2026-05-03 20:15 43.66259 7.20764 22 ft 0 kts 170°
2026-05-03 20:16 43.66251 7.20765 22 ft 3 kts 172°
2026-05-03 20:17 43.66216 7.20772 22 ft 8 kts 171°
2026-05-03 20:17 43.66142 7.20788 22 ft 13 kts 170°
2026-05-03 20:17 43.66043 7.20811 22 ft 15 kts 171°
2026-05-03 20:17 43.65931 7.20837 22 ft 17 kts 171°
2026-05-03 20:18 43.65851 7.20855 22 ft 17 kts 171°
2026-05-03 20:18 43.65733 7.20881 22 ft 13 kts 170°
2026-05-03 20:18 43.65702 7.20889 22 ft 0 kts 169°
2026-05-03 20:18 43.65699 7.20890 22 ft 1 kts 169°
2026-05-03 20:19 43.65684 7.20894 22 ft 3 kts 169°
2026-05-03 20:19 43.65666 7.20898 22 ft 5 kts 171°
2026-05-03 20:19 43.65625 7.20907 24 ft 7 kts 171°
2026-05-03 20:19 43.65562 7.20921 23 ft 11 kts 171°
2026-05-03 20:20 43.65469 7.20939 23 ft 16 kts 171°
2026-05-03 20:20 43.65346 7.20944 22 ft 19 kts 207°
2026-05-03 20:20 43.65249 7.20817 23 ft 21 kts 225°
2026-05-03 20:20 43.65142 7.20671 22 ft 22 kts 225°
2026-05-03 20:21 43.65032 7.20518 22 ft 23 kts 225°
2026-05-03 20:21 43.64916 7.20360 22 ft 25 kts 224°
2026-05-03 20:21 43.64806 7.20208 22 ft 22 kts 223°
2026-05-03 20:21 43.64704 7.20243 23 ft 15 kts 127°
2026-05-03 20:22 43.64723 7.20318 22 ft 0 kts 45°
2026-05-03 20:22 43.64727 7.20323 22 ft 0 kts 45°
2026-05-03 20:22 43.64860 7.20507 22 ft 58 kts 45°
2026-05-03 20:22 43.65293 7.21101 23 ft 116 kts 45°
2026-05-03 20:23 43.65991 7.22062 71 ft 161 kts 45°
2026-05-03 20:23 43.66767 7.23187 651 ft 164 kts 57°
2026-05-03 20:23 43.67121 7.24672 1243 ft 167 kts 88°
2026-05-03 20:23 43.66834 7.26315 1509 ft 190 kts 121°
2026-05-03 20:24 43.65943 7.27790 1841 ft 209 kts 131°
2026-05-03 20:24 43.64912 7.29301 2452 ft 219 kts 133°
2026-05-03 20:24 43.63867 7.30824 3301 ft 220 kts 129°
2026-05-03 20:24 43.63316 7.32777 4050 ft 223 kts 91°
2026-05-03 20:25 43.63676 7.34850 4882 ft 224 kts 70°
2026-05-03 20:25 43.64243 7.36873 5662 ft 228 kts 70°
2026-05-03 20:25 43.64814 7.38936 6465 ft 231 kts 71°
2026-05-03 20:25 43.65384 7.41031 7210 ft 235 kts 71°
2026-05-03 20:26 43.65953 7.43159 7945 ft 238 kts 72°
2026-05-03 20:26 43.66514 7.45284 8668 ft 242 kts 73°
2026-05-03 20:26 43.67099 7.47528 9430 ft 245 kts 74°
2026-05-03 20:26 43.67717 7.49739 9993 ft 261 kts 66°
2026-05-03 20:27 43.68634 7.52036 10290 ft 285 kts 63°
2026-05-03 20:27 43.69690 7.54495 10545 ft 309 kts 62°
2026-05-03 20:27 43.70853 7.57126 10765 ft 332 kts 61°
2026-05-03 20:27 43.72089 7.59895 11248 ft 343 kts 60°
2026-05-03 20:28 43.73349 7.62727 11891 ft 348 kts 60°
2026-05-03 20:28 43.74618 7.65605 12571 ft 353 kts 60°
2026-05-03 20:28 43.75892 7.68528 13263 ft 357 kts 61°
2026-05-03 20:28 43.77176 7.71497 13928 ft 361 kts 61°
2026-05-03 20:29 43.78470 7.74507 14490 ft 367 kts 61°
2026-05-03 20:29 43.79780 7.77560 15083 ft 370 kts 61°
2026-05-03 20:29 43.81104 7.80640 15671 ft 374 kts 60°
2026-05-03 20:29 43.82441 7.83747 16266 ft 377 kts 60°
2026-05-03 20:30 43.83792 7.86882 16866 ft 381 kts 60°
2026-05-03 20:30 43.85153 7.90046 17467 ft 384 kts 60°
2026-05-03 20:30 43.86527 7.93237 18058 ft 388 kts 60°
2026-05-03 20:30 43.87914 7.96460 18615 ft 391 kts 60°
2026-05-03 20:31 43.89313 7.99717 19117 ft 394 kts 60°
2026-05-03 20:31 43.90737 8.02984 19642 ft 398 kts 57°
2026-05-03 20:31 43.92597 8.05832 20152 ft 402 kts 38°
2026-05-03 20:31 43.94974 8.07766 20668 ft 403 kts 21°
2026-05-03 20:32 43.97596 8.09189 21204 ft 405 kts 20°
2026-05-03 20:32 44.00231 8.10599 21709 ft 408 kts 19°
2026-05-03 20:32 44.02882 8.12017 22207 ft 410 kts 19°
2026-05-03 20:32 44.05556 8.13454 22719 ft 413 kts 19°
2026-05-03 20:33 44.08248 8.14909 23228 ft 416 kts 19°
2026-05-03 20:33 44.10949 8.16370 23719 ft 418 kts 19°
2026-05-03 20:33 44.13674 8.17848 24127 ft 421 kts 19°
2026-05-03 20:33 44.16419 8.19343 24491 ft 425 kts 19°
2026-05-03 20:34 44.19193 8.20854 24883 ft 428 kts 19°
2026-05-03 20:34 44.21971 8.22366 25278 ft 430 kts 19°
2026-05-03 20:34 44.24762 8.23889 25659 ft 433 kts 19°
2026-05-03 20:34 44.27580 8.25429 26043 ft 435 kts 19°
2026-05-03 20:35 44.30403 8.26973 26415 ft 437 kts 19°
2026-05-03 20:35 44.33240 8.28525 26796 ft 439 kts 19°
2026-05-03 20:35 44.36092 8.30083 27184 ft 441 kts 19°
2026-05-03 20:35 44.38957 8.31650 27566 ft 443 kts 19°
2026-05-03 20:36 44.41834 8.33228 27941 ft 445 kts 19°
2026-05-03 20:36 44.44686 8.34795 28318 ft 447 kts 19°
2026-05-03 20:36 44.47630 8.36414 28684 ft 450 kts 18°
2026-05-03 20:36 44.50510 8.37994 29047 ft 452 kts 19°
2026-05-03 20:37 44.53443 8.39605 29381 ft 453 kts 18°
2026-05-03 20:37 44.56395 8.41227 29717 ft 458 kts 19°
2026-05-03 20:37 44.59374 8.42863 30107 ft 459 kts 19°
2026-05-03 20:37 44.62370 8.44518 30411 ft 463 kts 19°
2026-05-03 20:38 44.65364 8.46187 30710 ft 464 kts 19°
2026-05-03 20:38 44.68374 8.47861 30973 ft 466 kts 19°
2026-05-03 20:38 44.71392 8.49540 31229 ft 468 kts 19°
2026-05-03 20:38 44.74436 8.51229 31479 ft 471 kts 19°
2026-05-03 20:39 44.77492 8.52923 31789 ft 472 kts 19°
2026-05-03 20:39 44.80544 8.54623 32194 ft 471 kts 19°
2026-05-03 20:39 44.83590 8.56323 32583 ft 469 kts 18°
2026-05-03 20:39 44.86627 8.58013 32935 ft 469 kts 18°
2026-05-03 20:40 44.89671 8.59705 33286 ft 470 kts 18°
2026-05-03 20:40 44.92720 8.61405 33634 ft 472 kts 18°
2026-05-03 20:40 44.95773 8.63110 33998 ft 472 kts 18°
2026-05-03 20:40 44.98828 8.64823 34106 ft 469 kts 18°
2026-05-03 20:41 45.01837 8.66512 34110 ft 464 kts 18°
2026-05-03 20:41 45.07820 8.69880 34113 ft 462 kts 18°
2026-05-03 20:42 45.13805 8.73234 34115 ft 463 kts 17°
2026-05-03 20:42 45.19770 8.76588 34114 ft 461 kts 18°
2026-05-03 20:43 45.25731 8.79963 34095 ft 462 kts 18°
2026-05-03 20:43 45.31699 8.83362 34093 ft 462 kts 17°
2026-05-03 20:44 45.37633 8.86751 34083 ft 458 kts 18°
2026-05-03 20:44 45.43548 8.90106 34118 ft 458 kts 18°
2026-05-03 20:45 45.49455 8.93471 34119 ft 457 kts 18°
2026-05-03 20:45 45.55310 8.96823 34117 ft 456 kts 18°
2026-05-03 20:46 45.61207 9.00208 34112 ft 456 kts 17°
2026-05-03 20:46 45.67301 9.02246 34112 ft 446 kts 360°
2026-05-03 20:47 45.73476 9.02518 34119 ft 444 kts 357°
2026-05-03 20:47 45.79655 9.02777 34127 ft 444 kts 357°
2026-05-03 20:48 45.85824 9.03023 34135 ft 445 kts 358°
2026-05-03 20:48 45.91994 9.03279 34146 ft 443 kts 358°
2026-05-03 20:49 45.98145 9.03533 34153 ft 442 kts 358°
2026-05-03 20:49 46.04299 9.03788 34162 ft 442 kts 358°
2026-05-03 20:50 46.10457 9.04050 34125 ft 442 kts 358°
2026-05-03 20:50 46.16606 9.04304 34121 ft 442 kts 358°
2026-05-03 20:51 46.22762 9.04661 34135 ft 443 kts 359°
2026-05-03 20:51 46.28916 9.05120 34130 ft 443 kts 359°
2026-05-03 20:52 46.35071 9.05572 34121 ft 443 kts 359°
2026-05-03 20:52 46.41193 9.05992 34136 ft 443 kts 359°
2026-05-03 20:53 46.47341 9.06419 34108 ft 444 kts 359°
2026-05-03 20:53 46.53498 9.06836 34122 ft 444 kts 359°
2026-05-03 20:54 46.59725 9.07237 34145 ft 449 kts 358°
2026-05-03 20:54 46.69082 9.07876 34147 ft 447 kts 358°
2026-05-03 20:55 46.72167 9.08093 34345 ft 441 kts 359°
2026-05-03 20:55 46.75218 9.08317 34585 ft 439 kts 359°
2026-05-03 20:55 46.78264 9.08527 34809 ft 438 kts 359°
2026-05-03 20:55 46.81314 9.08730 35020 ft 440 kts 359°
2026-05-03 20:56 46.87482 9.09135 35098 ft 445 kts 359°
2026-05-03 20:56 46.93683 9.09564 35095 ft 446 kts 359°
2026-05-03 20:57 46.99880 9.10008 35079 ft 446 kts 359°
2026-05-03 20:57 47.06081 9.10436 35079 ft 446 kts 359°
2026-05-03 20:58 47.12274 9.10859 35073 ft 445 kts 359°
2026-05-03 20:58 47.18463 9.11284 35070 ft 445 kts 359°
2026-05-03 20:59 47.24661 9.11707 35081 ft 446 kts 359°
2026-05-03 20:59 47.30854 9.12145 35062 ft 446 kts 359°
2026-05-03 21:00 47.35005 9.12439 35057 ft 446 kts 359°
2026-05-03 21:00 47.43262 9.13021 35056 ft 447 kts 359°
2026-05-03 21:01 47.49488 9.13461 35057 ft 448 kts 359°
2026-05-03 21:01 47.55718 9.13900 35060 ft 449 kts 359°
2026-05-03 21:02 47.61959 9.14339 35063 ft 449 kts 359°
2026-05-03 21:02 47.68199 9.14786 35065 ft 449 kts 360°
2026-05-03 21:03 47.74407 9.15237 35061 ft 449 kts 360°
2026-05-03 21:03 47.80651 9.15684 35057 ft 450 kts 360°
2026-05-03 21:04 47.86906 9.16133 35057 ft 449 kts 360°
2026-05-03 21:04 47.92100 9.16506 35055 ft 449 kts 360°
2026-05-03 21:05 47.98343 9.16946 35051 ft 449 kts 360°
2026-05-03 21:05 48.04580 9.17393 35044 ft 449 kts 360°
2026-05-03 21:06 48.10826 9.17848 35052 ft 449 kts 360°
2026-05-03 21:06 48.17084 9.18309 35040 ft 450 kts
2026-05-03 21:07 48.23334 9.19171 35033 ft 452 kts
2026-05-03 21:07 48.29577 9.20361 35035 ft 452 kts
2026-05-03 21:08 48.35826 9.21524 35031 ft 452 kts
2026-05-03 21:08 48.42089 9.22588 35023 ft 453 kts
2026-05-03 21:09 48.48365 9.23622 35021 ft 453 kts
2026-05-03 21:09 48.54642 9.24678 35020 ft 454 kts
2026-05-03 21:10 48.60906 9.25758 35019 ft 453 kts
2026-05-03 21:10 48.67137 9.26784 35022 ft 453 kts
2026-05-03 21:11 48.73410 9.27706 35028 ft 453 kts
2026-05-03 21:11 48.79692 9.28628 35024 ft 454 kts
2026-05-03 21:12 48.85978 9.29589 35022 ft 454 kts
2026-05-03 21:12 48.92261 9.30570 35019 ft 454 kts
2026-05-03 21:13 48.98553 9.31544 35022 ft 454 kts
2026-05-03 21:13 49.04843 9.32512 35014 ft 454 kts
2026-05-03 21:14 49.11127 9.33484 35008 ft 454 kts
2026-05-03 21:14 49.17416 9.34469 35014 ft 454 kts
2026-05-03 21:15 49.23708 9.35451 35006 ft 454 kts
2026-05-03 21:15 49.30007 9.36425 35017 ft 455 kts
2026-05-03 21:16 49.36309 9.37407 35009 ft 456 kts
2026-05-03 21:16 49.42638 9.38410 35010 ft 458 kts
2026-05-03 21:17 49.47909 9.39248 35007 ft 459 kts
2026-05-03 21:17 49.55339 9.40419 35007 ft 459 kts
2026-05-03 21:18 49.61698 9.41421 35005 ft 460 kts
2026-05-03 21:18 49.68074 9.42431 35002 ft 461 kts
2026-05-03 21:19 49.74451 9.43458 35002 ft 461 kts
2026-05-03 21:19 49.80840 9.44490 35000 ft 461 kts
2026-05-03 21:20 49.87188 9.45504 35004 ft 462 kts
2026-05-03 21:20 49.93579 9.46519 34998 ft 462 kts
2026-05-03 21:21 49.99980 9.47546 34993 ft 462 kts
2026-05-03 21:21 50.06384 9.48607 34995 ft 463 kts
2026-05-03 21:22 50.12706 9.50639 34995 ft 464 kts 10°
2026-05-03 21:22 50.19021 9.52752 34992 ft 464 kts 10°
2026-05-03 21:23 50.25339 9.54862 34991 ft 464 kts 10°
2026-05-03 21:23 50.31657 9.56977 34985 ft 464 kts 10°
2026-05-03 21:24 50.37980 9.59108 34988 ft 465 kts 10°
2026-05-03 21:24 50.44310 9.61255 34986 ft 465 kts 10°
2026-05-03 21:25 50.50636 9.63414 34988 ft 466 kts 10°
2026-05-03 21:25 50.56976 9.65573 34973 ft 466 kts 10°
2026-05-03 21:26 50.63327 9.67736 34968 ft 467 kts 10°
2026-05-03 21:26 50.69681 9.69906 34972 ft 467 kts 10°
2026-05-03 21:27 50.76048 9.72081 34970 ft 468 kts 10°
2026-05-03 21:27 50.82400 9.74265 34972 ft 468 kts 10°
2026-05-03 21:28 50.88762 9.76462 34971 ft 468 kts 10°
2026-05-03 21:28 50.95075 9.78647 34980 ft 468 kts 10°
2026-05-03 21:29 51.01456 9.80859 34973 ft 468 kts 10°
2026-05-03 21:29 51.07825 9.83077 34970 ft 468 kts 10°
2026-05-03 21:30 51.14196 9.85291 34965 ft 469 kts 10°
2026-05-03 21:30 51.20575 9.87525 34975 ft 469 kts 10°
2026-05-03 21:31 51.26828 9.90583 34972 ft 472 kts 18°
2026-05-03 21:31 51.32993 9.93986 34971 ft 472 kts 18°
2026-05-03 21:32 51.39198 9.97414 34981 ft 472 kts 18°
2026-05-03 21:32 51.45400 10.00867 34978 ft 472 kts 18°
2026-05-03 21:33 51.51593 10.04316 34973 ft 471 kts 18°
2026-05-03 21:33 51.57790 10.07763 34970 ft 471 kts 18°
2026-05-03 21:34 51.63989 10.11229 34968 ft 472 kts 18°
2026-05-03 21:34 51.70194 10.14711 34963 ft 472 kts 18°
2026-05-03 21:35 51.76396 10.18204 34956 ft 471 kts 18°
2026-05-03 21:35 51.82588 10.21707 34955 ft 472 kts 18°
2026-05-03 21:36 51.88793 10.25228 34963 ft 473 kts 18°
2026-05-03 21:36 51.94996 10.28750 34958 ft 472 kts 18°
2026-05-03 21:37 52.01189 10.32283 34961 ft 472 kts 18°
2026-05-03 21:37 52.07382 10.35814 34951 ft 471 kts 18°
2026-05-03 21:38 52.13557 10.39348 34951 ft 470 kts 18°
2026-05-03 21:38 52.19736 10.42886 34953 ft 470 kts 18°
2026-05-03 21:39 52.25895 10.46434 34950 ft 470 kts 18°
2026-05-03 21:39 52.32010 10.49979 34952 ft 469 kts 18°
2026-05-03 21:40 52.38162 10.53561 34949 ft 469 kts 18°
2026-05-03 21:40 52.44305 10.57146 34944 ft 469 kts 18°
2026-05-03 21:41 52.50458 10.60723 34940 ft 469 kts 18°
2026-05-03 21:41 52.56603 10.64314 34949 ft 469 kts 18°
2026-05-03 21:42 52.62750 10.67917 34940 ft 469 kts 18°
2026-05-03 21:42 52.68889 10.71534 34929 ft 469 kts 18°
2026-05-03 21:43 52.75039 10.75167 34923 ft 469 kts 18°
2026-05-03 21:43 52.81183 10.78809 34926 ft 470 kts 18°
2026-05-03 21:44 52.87343 10.82463 34916 ft 470 kts 18°
2026-05-03 21:44 52.93493 10.86123 34915 ft 470 kts 18°
2026-05-03 21:45 52.99659 10.89809 34912 ft 470 kts 18°
2026-05-03 21:45 53.05810 10.93504 34907 ft 470 kts 18°
2026-05-03 21:46 53.11971 10.97216 34909 ft 471 kts 18°
2026-05-03 21:46 53.18127 11.00927 34912 ft 471 kts 18°
2026-05-03 21:47 53.24251 11.04632 34929 ft 471 kts 18°
2026-05-03 21:47 53.29412 11.07765 34929 ft 470 kts 18°
2026-05-03 21:48 53.36550 11.12102 34915 ft 469 kts 18°
2026-05-03 21:48 53.42693 11.15844 34904 ft 470 kts 18°
2026-05-03 21:49 53.48828 11.19609 34913 ft 469 kts 18°
2026-05-03 21:49 53.54962 11.23371 34903 ft 469 kts 18°
2026-05-03 21:50 53.61089 11.27139 34783 ft 468 kts 18°
2026-05-03 21:50 53.63112 11.28391 34610 ft 465 kts 18°
2026-05-03 21:50 53.66139 11.30271 34365 ft 463 kts 18°
2026-05-03 21:51 53.69162 11.32144 34126 ft 462 kts 18°
2026-05-03 21:51 53.72182 11.34011 33885 ft 461 kts 18°
2026-05-03 21:51 53.75185 11.35870 33618 ft 460 kts 18°
2026-05-03 21:51 53.78191 11.37735 33337 ft 458 kts 18°
2026-05-03 21:52 53.81167 11.39587 33052 ft 454 kts 18°
2026-05-03 21:52 53.84124 11.41434 32575 ft 452 kts 18°
2026-05-03 21:52 53.87066 11.43273 32092 ft 450 kts 18°
2026-05-03 21:52 53.90001 11.45110 31609 ft 448 kts 18°
2026-05-03 21:53 53.92920 11.46939 31138 ft 446 kts 18°
2026-05-03 21:53 53.95822 11.48760 30694 ft 444 kts 18°
2026-05-03 21:53 53.98717 11.50577 30223 ft 442 kts 18°
2026-05-03 21:53 54.01594 11.52385 29739 ft 440 kts 18°
2026-05-03 21:54 54.04452 11.54184 29293 ft 436 kts 18°
2026-05-03 21:54 54.07290 11.55978 28865 ft 433 kts 18°
2026-05-03 21:54 54.10100 11.57762 28454 ft 430 kts 18°
2026-05-03 21:54 54.12893 11.59540 28035 ft 426 kts 18°
2026-05-03 21:55 54.15657 11.61300 27626 ft 423 kts 18°
2026-05-03 21:55 54.18415 11.63051 27206 ft 422 kts 18°
2026-05-03 21:55 54.21172 11.64797 26778 ft 420 kts 18°
2026-05-03 21:55 54.23905 11.66534 26355 ft 419 kts 18°
2026-05-03 21:56 54.26601 11.68250 25936 ft 417 kts 18°
2026-05-03 21:56 54.29312 11.69983 25497 ft 416 kts 18°
2026-05-03 21:56 54.32022 11.71722 25051 ft 415 kts 18°
2026-05-03 21:56 54.34724 11.73456 24607 ft 414 kts 18°
2026-05-03 21:57 54.37405 11.75175 24365 ft 407 kts 18°
2026-05-03 21:57 54.40019 11.76849 24267 ft 394 kts 18°
2026-05-03 21:57 54.42553 11.78490 24184 ft 383 kts 19°
2026-05-03 21:57 54.44955 11.80582 24014 ft 392 kts 30°
2026-05-03 21:58 54.47288 11.83021 23784 ft 393 kts 30°
2026-05-03 21:58 54.49615 11.85477 23554 ft 393 kts 30°
2026-05-03 21:58 54.51932 11.87929 23292 ft 390 kts 30°
2026-05-03 21:58 54.54218 11.90365 23005 ft 386 kts 30°
2026-05-03 21:59 54.56495 11.92801 22741 ft 385 kts 29°
2026-05-03 21:59 54.58769 11.95207 22463 ft 382 kts 29°
2026-05-03 21:59 54.61036 11.97618 22190 ft 382 kts 30°
2026-05-03 21:59 54.63298 12.00024 21929 ft 381 kts 30°
2026-05-03 22:00 54.65551 12.02422 21666 ft 380 kts 30°
2026-05-03 22:00 54.67796 12.04814 21421 ft 379 kts 29°
2026-05-03 22:00 54.70040 12.07207 21163 ft 379 kts 30°
2026-05-03 22:00 54.72278 12.09598 20911 ft 376 kts 30°
2026-05-03 22:01 54.74495 12.11969 20559 ft 373 kts 30°
2026-05-03 22:01 54.76701 12.14329 20128 ft 372 kts 29°
2026-05-03 22:01 54.78942 12.16390 19849 ft 369 kts 24°
2026-05-03 22:01 54.81271 12.18394 19604 ft 369 kts 23°
2026-05-03 22:02 54.83549 12.20308 19360 ft 368 kts 23°
2026-05-03 22:02 54.85852 12.22225 19123 ft 366 kts 23°
2026-05-03 22:02 54.88147 12.24139 18883 ft 365 kts 23°
2026-05-03 22:02 54.90422 12.26047 18605 ft 361 kts 23°
2026-05-03 22:03 54.92688 12.27957 18203 ft 362 kts 23°
2026-05-03 22:03 54.94948 12.29873 17738 ft 361 kts 23°
2026-05-03 22:03 54.97197 12.31788 17414 ft 357 kts 23°
2026-05-03 22:03 54.99416 12.33682 17019 ft 355 kts 23°
2026-05-03 22:04 55.01638 12.35577 16613 ft 354 kts 24°
2026-05-03 22:04 55.03847 12.37463 16204 ft 353 kts 24°
2026-05-03 22:04 55.06050 12.39347 15799 ft 353 kts 24°
2026-05-03 22:04 55.08256 12.41233 15391 ft 353 kts 24°
2026-05-03 22:05 55.10460 12.43120 14984 ft 353 kts 24°
2026-05-03 22:05 55.12671 12.45012 14570 ft 353 kts 24°
2026-05-03 22:05 55.14875 12.46900 14175 ft 354 kts 24°
2026-05-03 22:05 55.17088 12.48801 13751 ft 354 kts 24°
2026-05-03 22:06 55.19265 12.50676 13308 ft 353 kts 25°
2026-05-03 22:06 55.21496 12.52575 12847 ft 352 kts 25°
2026-05-03 22:06 55.23652 12.54441 12523 ft 348 kts 25°
2026-05-03 22:06 55.25821 12.56356 12262 ft 341 kts 25°
2026-05-03 22:07 55.27893 12.58204 12018 ft 335 kts 25°
2026-05-03 22:07 55.29967 12.60060 11699 ft 334 kts 26°
2026-05-03 22:07 55.32048 12.61925 11298 ft 337 kts 26°
2026-05-03 22:07 55.34146 12.63797 10897 ft 338 kts 25°
2026-05-03 22:08 55.36240 12.65660 10490 ft 339 kts 26°
2026-05-03 22:08 55.38343 12.67529 10096 ft 339 kts 26°
2026-05-03 22:08 55.40421 12.69389 9928 ft 329 kts 26°
2026-05-03 22:08 55.42447 12.71201 9483 ft 323 kts 26°
2026-05-03 22:09 55.44438 12.72981 8941 ft 321 kts 26°
2026-05-03 22:09 55.46423 12.74748 8421 ft 317 kts 26°
2026-05-03 22:09 55.48383 12.76502 7907 ft 315 kts 26°
2026-05-03 22:10 55.52221 12.79965 7134 ft 302 kts 26°
2026-05-03 22:10 55.54082 12.81647 6707 ft 299 kts 26°
2026-05-03 22:10 55.55929 12.83317 6283 ft 296 kts 26°
2026-05-03 22:10 55.57720 12.84941 6139 ft 282 kts 26°
2026-05-03 22:11 55.59439 12.86491 5864 ft 274 kts 25°
2026-05-03 22:11 55.61130 12.88014 5478 ft 271 kts 25°
2026-05-03 22:11 55.62798 12.89523 5070 ft 268 kts 26°
2026-05-03 22:11 55.64446 12.91013 4651 ft 265 kts 27°
2026-05-03 22:12 55.66081 12.92492 4223 ft 262 kts 27°
2026-05-03 22:12 55.67707 12.93913 3785 ft 259 kts 21°
2026-05-03 22:12 55.69447 12.94382 3377 ft 251 kts 351°
2026-05-03 22:12 55.71031 12.93525 3244 ft 230 kts 326°
2026-05-03 22:13 55.72248 12.91778 2777 ft 226 kts 306°
2026-05-03 22:13 55.73266 12.89702 2511 ft 221 kts 307°
2026-05-03 22:13 55.73930 12.87394 2489 ft 200 kts 274°
2026-05-03 22:13 55.73819 12.85069 2498 ft 188 kts 245°
2026-05-03 22:14 55.73110 12.83209 2514 ft 176 kts 219°
2026-05-03 22:14 55.72227 12.81843 2485 ft 160 kts 219°
2026-05-03 22:14 55.71417 12.80573 2357 ft 156 kts 219°
2026-05-03 22:14 55.70608 12.79308 2179 ft 156 kts 218°
2026-05-03 22:15 55.69793 12.78046 2000 ft 156 kts 219°
2026-05-03 22:15 55.69020 12.76824 1785 ft 139 kts 219°
2026-05-03 22:15 55.68313 12.75725 1600 ft 131 kts 219°
2026-05-03 22:15 55.67634 12.74672 1428 ft 129 kts 216°
2026-05-03 22:16 55.66951 12.73613 1238 ft 130 kts 220°
2026-05-03 22:16 55.66272 12.72557 1073 ft 130 kts 220°
2026-05-03 22:16 55.65590 12.71499 855 ft 130 kts 223°
2026-05-03 22:16 55.64906 12.70444 683 ft 133 kts 222°
2026-05-03 22:17 55.64213 12.69360 527 ft 132 kts 224°
2026-05-03 22:17 55.63521 12.68284 341 ft 132 kts 223°
2026-05-03 22:17 55.62838 12.67217 140 ft 131 kts 226°
2026-05-03 22:17 55.62173 12.66176 26 ft 115 kts 221°
2026-05-03 22:18 55.61680 12.65421 23 ft 54 kts 220°
2026-05-03 22:18 55.61607 12.65122 23 ft 18 kts 276°
2026-05-03 22:18 55.61644 12.64963 24 ft 11 kts 309°
2026-05-03 22:18 55.61700 12.64854 24 ft 12 kts 317°
2026-05-03 22:19 55.61785 12.64798 26 ft 14 kts 343°
2026-05-03 22:19 55.61886 12.64810 24 ft 16 kts 24°
2026-05-03 22:19 55.61982 12.64916 24 ft 17 kts 32°
2026-05-03 22:19 55.62084 12.65034 25 ft 17 kts 34°
2026-05-03 22:20 55.62180 12.65145 25 ft 15 kts 32°
2026-05-03 22:20 55.62263 12.65110 26 ft 13 kts 304°
2026-05-03 22:20 55.62318 12.64957 24 ft 16 kts 301°
2026-05-03 22:20 55.62386 12.64783 24 ft 17 kts 303°
2026-05-03 22:21 55.62459 12.64667 24 ft 15 kts 347°
2026-05-03 22:21 55.62560 12.64653 24 ft 14 kts 359°
2026-05-03 22:21 55.62634 12.64632 26 ft 7 kts 306°
2026-05-03 22:21 55.62646 12.64574 24 ft 1 kts 281°
2026-05-03 22:22 55.62649 12.64553 24 ft 1 kts 282°
2026-05-03 22:22 55.62649 12.64547 26 ft 0 kts 282°
2026-05-03 22:23 55.62649 12.64548 24 ft 0 kts 282°